sat.trackr.live / text

‹ back to catalog

STARLINK-32088

NORAD 59693 · 2024-086M

PAYLOAD ACTIVE UNKNOWN

§ Identity

Operator
Country
US
Launch date
2024-05-08
Launch site
AFETR
Launch vehicle
Mass (kg)
RCS (m²)

Purposes: comms

External: N2YO · Heavens-Above · Gunter

§ Orbital elements

Epoch: 2026-09-21T16:19:36.133248Z

Period
94.27 min
Inclination
43.0020°
Eccentricity
0.0001176
Mean motion
15.27578399 rev/d
Perigee alt
482.2 km
Apogee alt
483.9 km
Semi-major
6,861.2 km
B*
1.6543e-5
RAAN
25.4948°
Arg perigee
265.8465°
Mean anomaly
94.2253°
Rev number
13,417

§ Raw data

STARLINK-320881 59693U 24086M   26264.68027932  .00000193  00000+0  16543-4 0  99942 59693  43.0020  25.4948 0001176 265.8465  94.2253 15.27578399134173

JSON: /api/v1/satellites/59693 · /tle

For live sub-satellite position, see the globe view (requires WebGL).

§ Visibility from observer

Set your observer location to see the next 7 days of passes ≥ 10°. The values pass through the URL so the page stays shareable.

No JS? Fill the form by hand. The geolocation button needs JavaScript.